Haines, AK

5:02 PM AKDT on August 30, 2016 (GMT -0800)
Haines

Weather History for PAHN - October, 2013

Change the Weather History Date:

Thursday, October 24, 2013

  Actual Average Record
Temperature  
Mean Temperature 41 °F -  
Max Temperature 48 °F 41 °F 52 °F (1998)
Min Temperature 34 °F 33 °F 21 °F (1982)
Degree Days  
Heating Degree Days 24    
Moisture  
Dew Point 38 °F    
Average Humidity 93    
Maximum Humidity 100    
Minimum Humidity 81    
Precipitation  
Precipitation 0.00 in - - ()
Sea Level Pressure  
Sea Level Pressure 30.07 in    
Wind  
Wind Speed 7 mph (WNW)    
Max Wind Speed 12 mph    
Max Gust Speed 20 mph    
Visibility 10 miles    
Events Rain    
Averages and records for this station are not official NWS values.
T = Trace of Precipitation, MM = Missing Value Source: NWS Daily Summary

Daily Weather History Graph

Daily Weather History Graph

Search for Another Location

Airport or City:

Trip Planner

Search our weather history database for the weather conditions in past years. The results will help you decide how hot, cold, wet, or windy it might be!

Date:

Astronomy

Oct. 24, 2013 Rise Set
Actual Time 8:02 AM AKDT 5:28 PM AKDT
Civil Twilight 7:19 AM AKDT 6:11 PM AKDT
Nautical Twilight 6:32 AM AKDT 6:58 PM AKDT
Astronomical Twilight 5:45 AM AKDT 7:45 PM AKDT
Moon 9:29 PM AKDT (10/24) 1:42 PM AKDT (10/24)
Length of Visible Light 10h 51m
Length of Day
9h 26m
Waning Gibbous, 70% of the Moon is Illuminated
Oct 24
Waning Gibbous
Oct 26
Last Quarter
Nov 3
New
Nov 9
First Quarter
Nov 17
Full

Hourly Weather History & Observations

Time (AKDT) Temp. Windchill Dew Point Humidity Pressure Visibility Wind Dir Wind Speed Gust Speed Precip Events Conditions
12:54 AM 48.0 °F - 46.0 °F 93% 29.86 in 10.0 mi East 11.5 mph 19.6 mph N/A   Overcast
1:14 AM 48.2 °F - 44.6 °F 87% 29.87 in 10.0 mi ENE 8.1 mph - N/A   Overcast
1:38 AM 48.2 °F - 44.6 °F 87% 29.89 in 10.0 mi Variable 5.8 mph 18.4 mph N/A   Mostly Cloudy
1:54 AM 48.0 °F - 44.1 °F 86% 29.90 in 10.0 mi ENE 11.5 mph 19.6 mph N/A   Mostly Cloudy
2:54 AM 39.0 °F 32.8 °F 37.0 °F 93% 29.95 in 10.0 mi West 9.2 mph - 0.00 in Rain Light Rain
3:54 AM 37.0 °F 33.3 °F 36.0 °F 96% 29.99 in 10.0 mi West 4.6 mph - N/A   Mostly Cloudy
4:54 AM 36.0 °F 28.5 °F 34.0 °F 93% 30.00 in 10.0 mi WNW 10.4 mph - N/A   Clear
5:54 AM 36.0 °F 32.1 °F 35.1 °F 97% 30.03 in 10.0 mi WNW 4.6 mph - N/A   Clear
6:54 AM 35.1 °F 32.2 °F 34.0 °F 96% 30.05 in 10.0 mi WNW 3.5 mph - N/A   Clear
7:54 AM 34.0 °F - 34.0 °F 100% 30.06 in 10.0 mi Calm Calm - N/A   Clear
8:54 AM 34.0 °F 26.6 °F 33.1 °F 96% 30.07 in 6.0 mi WNW 9.2 mph - N/A   Partly Cloudy
9:01 AM 35.6 °F 28.0 °F 33.8 °F 93% 30.07 in 2.0 mi WNW 10.4 mph - N/A   Mostly Cloudy
9:10 AM 35.6 °F 29.9 °F 33.8 °F 93% 30.07 in 5.0 mi WNW 6.9 mph - N/A   Scattered Clouds
9:54 AM 36.0 °F 28.5 °F 35.1 °F 97% 30.11 in 10.0 mi WNW 10.4 mph - N/A   Clear
10:22 AM 35.6 °F 29.2 °F 35.6 °F 100% 30.11 in 10.0 mi WNW 8.1 mph - N/A   Mostly Cloudy
10:54 AM 37.0 °F 31.6 °F 36.0 °F 96% 30.13 in 10.0 mi WNW 6.9 mph - N/A   Scattered Clouds
11:54 AM 39.9 °F 35.1 °F 37.9 °F 93% 30.14 in 10.0 mi WNW 6.9 mph - N/A   Partly Cloudy
12:49 PM 39.2 °F 35.0 °F 39.2 °F 100% 30.14 in 10.0 mi WNW 5.8 mph - N/A   Mostly Cloudy
12:54 PM 41.0 °F 36.4 °F 39.0 °F 93% 30.15 in 10.0 mi WNW 6.9 mph - N/A   Mostly Cloudy
1:20 PM 41.0 °F 39.0 °F 39.2 °F 93% 30.13 in 10.0 mi West 3.5 mph - N/A   Scattered Clouds
1:54 PM 42.1 °F - 39.0 °F 89% 30.13 in 10.0 mi Calm Calm - N/A   Partly Cloudy
2:54 PM 42.1 °F - 39.9 °F 92% 30.12 in 10.0 mi Calm Calm - N/A   Mostly Cloudy
3:35 PM 42.8 °F - 41.0 °F 93% 30.11 in 10.0 mi Calm Calm - N/A   Mostly Cloudy
3:47 PM 44.6 °F - 39.2 °F 81% 30.10 in 10.0 mi Calm Calm - N/A   Mostly Cloudy
3:54 PM 43.0 °F 40.3 °F 39.9 °F 89% 30.11 in 10.0 mi West 4.6 mph - N/A   Overcast
4:54 PM 43.0 °F - 41.0 °F 93% 30.10 in 10.0 mi Calm Calm - N/A   Overcast
5:54 PM 42.1 °F 36.6 °F 39.9 °F 92% 30.11 in 10.0 mi WNW 9.2 mph - N/A   Overcast
6:54 PM 42.1 °F - 41.0 °F 96% 30.11 in 10.0 mi Calm Calm - N/A   Overcast
7:54 PM 42.1 °F - 39.9 °F 92% 30.10 in 10.0 mi Calm Calm - N/A   Overcast
8:54 PM 39.9 °F 37.8 °F 39.0 °F 97% 30.11 in 10.0 mi NW 3.5 mph - N/A   Overcast
9:54 PM 39.9 °F 37.8 °F 39.0 °F 97% 30.12 in 10.0 mi WNW 3.5 mph - N/A   Overcast
10:54 PM 39.0 °F 34.8 °F 37.9 °F 96% 30.12 in 10.0 mi NW 5.8 mph - N/A   Overcast
11:54 PM 39.9 °F 34.5 °F 37.9 °F 93% 30.13 in 10.0 mi NW 8.1 mph - N/A   Overcast